Simultaneous Nadir Overpasses (SNOs) Predictions

Prediction of SNOs between AQUA and GOES-15 Satellite Orbit:

Table of predicted SNOs for the next 14.0 days since TLE Epoch: 12/29/2017
Index Date Time (AQUA) AQUA Lat,Lon GOES-15 Lat,Lon Distance(km) Time Diff (sec)
1 12/29/2017 22:22:57 0.77,-131.93 0.04,-135.19 371.82 80
2 12/30/2017 10:44:13 0.34,-137.09 -0.05,-135.25 208.70 80
3 01/01/2018 10:32:02 -0.26,-134.12 -0.04,-135.20 122.21 80
4 01/01/2018 22:53:26 -0.86,-139.31 0.05,-135.12 476.85 80
5 01/03/2018 10:19:52 -0.92,-131.17 -0.04,-135.14 452.46 80
6 01/03/2018 22:41:15 -0.26,-136.35 0.05,-135.06 146.80 80
7 01/05/2018 22:29:05 0.40,-133.40 0.05,-135.00 183.04 80
8 01/06/2018 10:50:21 0.69,-138.55 -0.05,-135.05 398.18 80
9 01/08/2018 10:38:10 0.08,-135.59 -0.05,-134.99 68.50 80
10 01/10/2018 10:25:59 -0.53,-132.63 -0.05,-134.93 260.86 80
11 01/10/2018 22:47:23 -0.58,-137.82 0.05,-134.85 338.15 80




NCC Satellite Simultaneous Nadir Overpasses (SNOs) Prediction Service
